Find Starlink 32451

NORAD ID: 61857 Int'l Des: 2024-202 Owner: SPXS Country: US Constellation: starlink operational
LEOCIRCULAR

Live Position

Loading 3D Globe...

About Starlink 32451

Description loading...

Upcoming Passes

Passes for default location (London). Set your location on the main map for personalized predictions.

Altitude History

Loading altitude history...

Two-Line Element Set

1 61857U 24202N 26126.46359657 -.00000765 00000-0 -18282-4 0 9994
2 61857 42.9985 271.6888 0001582 195.4586 164.6218 15.27574673 84175
Epoch: May 6, 2026 • Age: 27 hours

Current Status

Altitude 483.3 km
Velocity 7.63 km/s
Sub-Earth Point 17.25°N, 149.43°W
Launch Date Nov 7, 2024
Age 1.4 years
Type internet

Technical Details

Classification Payload
Mass 730.00 kg
Dry Mass 700.00 kg
Total Mass 730.00 kg
Length 0.30 m
Diameter 4.10 m
Span 29.00 m
Shape Box + pan
Manufacturer SPXS
Bus Type Starlink V2M
Phase Status In Orbit
Owner/State SPXS/US

Most Searched